Weather History for YBHM - May, 2014

Change the Weather History Date:

Sunday, May 4, 2014

  Actual Average Record
Temperature  
Mean Temperature 68 °F -  
Max Temperature 70 °F - - ()
Min Temperature 66 °F - - ()
Cooling Degree Days 3    
Growing Degree Days 18 (Base 50)    
Moisture  
Dew Point 44 °F    
Average Humidity 40    
Maximum Humidity 56    
Minimum Humidity 25    
Precipitation  
Precipitation 0.00 in - - ()
Sea Level Pressure  
Sea Level Pressure 29.99 in    
Wind  
Wind Speed 15 mph ()    
Max Wind Speed 25 mph    
Max Gust Speed 32 mph    
Visibility 6.2 miles    
Events      
T = Trace of Precipitation, MM = Missing Value Source: Averaged Metar Reports

Daily Weather History Graph

Daily Weather History Graph

Search for Another Location

Airport or City:

Trip Planner

Search our weather history database for the weather conditions in past years. The results will help you decide how hot, cold, wet, or windy it might be!

Date:

Astronomy

May. 04, 2014 Rise Set
Actual Time 6:21 AM AEST 5:40 PM AEST
Civil Twilight 5:58 AM AEST 6:03 PM AEST
Nautical Twilight 5:32 AM AEST 6:29 PM AEST
Astronomical Twilight 5:06 AM AEST 6:55 PM AEST
Moon 10:24 AM AEST (5/4) 9:50 PM AEST (5/4)
Length of Visible Light 12h 04m
Length of Day
11h 18m
Waxing Crescent, 23% of the Moon is Illuminated
May 4
Waxing Crescent
May 7
First Quarter
May 15
Full
May 21
Last Quarter
May 29
New

Hourly Weather History & Observations

Time (AEST) Temp. Dew Point Humidity Pressure Visibility Wind Dir Wind Speed Gust Speed Precip Events Conditions
12:00 AM 70 °F 42 °F 25% 29.89 in - WSW 17.3 mph - -  
12:00 AM 69.8 °F 42.8 °F 38% 29.89 in 6.2 mi WSW 17.3 mph - N/A   Unknown
12:30 AM 69.8 °F 42.8 °F 38% 29.89 in 6.2 mi WSW 17.3 mph - N/A   Unknown
1:00 AM 69.8 °F 41.0 °F 35% 29.89 in 6.2 mi WSW 17.3 mph - N/A   Unknown
1:30 AM 69.8 °F 42.8 °F 38% 29.89 in 6.2 mi WSW 20.7 mph - N/A   Unknown
2:00 AM 69.8 °F 42.8 °F 38% 29.89 in 6.2 mi SW 13.8 mph - N/A   Unknown
2:30 AM 68.0 °F 44.6 °F 43% 29.89 in 6.2 mi SSW 10.4 mph - N/A   Unknown
3:00 AM 69 °F 41 °F 25% 29.90 in - South 12.7 mph - -  
3:00 AM 68.0 °F 41.0 °F 37% 29.89 in 6.2 mi South 12.7 mph - N/A   Unknown
3:30 AM 68.0 °F 42.8 °F 40% 29.89 in 6.2 mi SSW 10.4 mph - N/A   Unknown
4:00 AM 68.0 °F 41.0 °F 37% 29.92 in 6.2 mi South 19.6 mph - N/A   Unknown
4:30 AM 68.0 °F 41.0 °F 37% 29.92 in 6.2 mi South 21.9 mph - N/A   Unknown
5:00 AM 68.0 °F 42.8 °F 40% 29.92 in 6.2 mi South 23.0 mph - N/A   Unknown
5:30 AM 66.2 °F 41.0 °F 40% 29.95 in 6.2 mi SSE 23.0 mph - N/A   Unknown
5:55 AM 66.2 °F 41.0 °F 40% 29.95 in 6.2 mi South 20.7 mph 32.2 mph N/A   Unknown
6:00 AM 67 °F 40 °F 25% 29.95 in - South 21.9 mph - -  
6:00 AM 66.2 °F 39.2 °F 37% 29.95 in 6.2 mi South 21.9 mph - N/A   Unknown
6:30 AM 66.2 °F 42.8 °F 43% 29.95 in 6.2 mi SSE 21.9 mph - N/A   Unknown
7:00 AM 68.0 °F 42.8 °F 40% 29.98 in 6.2 mi South 23.0 mph - N/A   Unknown
7:30 AM 68.0 °F 42.8 °F 40% 30.01 in 6.2 mi SSE 21.9 mph - N/A   Unknown
8:00 AM 68.0 °F 41.0 °F 37% 30.01 in 6.2 mi SSE 25.3 mph - N/A   Unknown
8:30 AM 68.0 °F 41.0 °F 37% 30.01 in 6.2 mi SSE 20.7 mph - N/A   Unknown
9:00 AM 69 °F 45 °F 30% 30.04 in - SSE 19.6 mph - -  
9:00 AM 68.0 °F 44.6 °F 43% 30.04 in - SSE 19.6 mph - N/A   Unknown
9:30 AM 68.0 °F 42.8 °F 40% 30.04 in - SSE 21.9 mph - N/A   Unknown
10:00 AM 68.0 °F 41.0 °F 37% 30.04 in - SSE 19.6 mph - N/A   Unknown
10:30 AM 68.0 °F 42.8 °F 40% 30.04 in - SSE 20.7 mph - N/A   Unknown
11:00 AM 68.0 °F 39.2 °F 35% 30.04 in - SSE 19.6 mph - N/A   Unknown
11:30 AM 69.8 °F 42.8 °F 38% 30.04 in - SSE 18.4 mph - N/A   Unknown
12:00 PM 70 °F 43 °F 26% 30.02 in - SSE 15.0 mph - -  
12:00 PM 69.8 °F 42.8 °F 38% 30.01 in - SSE 15.0 mph - N/A   Unknown
12:30 PM 69.8 °F 44.6 °F 40% 30.01 in - SSE 13.8 mph - N/A   Unknown
1:00 PM 69.8 °F 44.6 °F 40% 29.98 in - SSE 11.5 mph - N/A   Unknown
1:30 PM 69.8 °F 42.8 °F 38% 29.98 in - SSE 12.7 mph - N/A   Unknown
2:00 PM 69.8 °F 46.4 °F 43% 29.98 in - SE 11.5 mph - N/A   Unknown
2:30 PM 69.8 °F 42.8 °F 38% 29.98 in - SE 10.4 mph - N/A   Unknown
3:00 PM 69 °F 45 °F 30% 29.98 in - SE 11.5 mph - -  
3:00 PM 68.0 °F 44.6 °F 43% 29.98 in - SE 11.5 mph - N/A   Unknown
3:30 PM 68.0 °F 42.8 °F 40% 29.98 in - SE 11.5 mph - N/A   Unknown
4:00 PM 68.0 °F 42.8 °F 40% 29.98 in - East 12.7 mph - N/A   Unknown
4:30 PM 68.0 °F 44.6 °F 43% 29.98 in 6.2 mi East 12.7 mph - N/A   Unknown
5:00 PM 68.0 °F 48.2 °F 49% 29.98 in 6.2 mi East 11.5 mph - N/A   Unknown
5:30 PM 68.0 °F 44.6 °F 43% 30.01 in 6.2 mi East 12.7 mph - N/A   Unknown
6:00 PM 67 °F 47 °F 37% 30.01 in - East 11.5 mph - -  
6:00 PM 68.0 °F 46.4 °F 46% 30.01 in 6.2 mi East 11.5 mph - N/A   Unknown
6:30 PM 66.2 °F 46.4 °F 49% 30.01 in 6.2 mi ESE 11.5 mph - N/A   Unknown
7:00 PM 68.0 °F 46.4 °F 46% 30.04 in 6.2 mi ESE 9.2 mph - N/A   Unknown
7:30 PM 68.0 °F 46.4 °F 46% 30.04 in 6.2 mi ESE 10.4 mph - N/A   Unknown
8:00 PM 66.2 °F 48.2 °F 52% 30.06 in 6.2 mi SE 10.4 mph - N/A   Unknown
8:30 PM 68.0 °F 48.2 °F 49% 30.06 in 6.2 mi ESE 8.1 mph - N/A   Unknown
9:00 PM 68 °F 49 °F 39% 30.08 in - ESE 8.1 mph - -  
9:00 PM 68.0 °F 48.2 °F 49% 30.06 in 6.2 mi ESE 8.1 mph - N/A   Unknown
9:30 PM 68.0 °F 50.0 °F 52% 30.06 in 6.2 mi East 5.8 mph - N/A   Unknown
10:00 PM 68.0 °F 48.2 °F 49% 30.06 in 6.2 mi ESE 6.9 mph - N/A   Unknown
10:30 PM 66.2 °F 48.2 °F 52% 30.06 in 6.2 mi ESE 8.1 mph - N/A   Unknown
11:00 PM 66.2 °F 48.2 °F 52% 30.06 in 6.2 mi ENE 5.8 mph - N/A   Unknown
11:30 PM 66.2 °F 50.0 °F 56% 30.06 in 6.2 mi East 1.2 mph - N/A   Unknown